Provincetown, MA

8:19 PM EST on November 17, 2017 (GMT -0500)
Provincetown Municipal

Weather History for KPVC - November, 2012

Change the Weather History Date:

Thursday, November 8, 2012

  Actual Average Record
Temperature  
Mean Temperature 45 °F -  
Max Temperature 48 °F 49 °F 70 °F (1951)
Min Temperature 42 °F 39 °F 32 °F (2007)
Degree Days  
Heating Degree Days 20    
Moisture  
Dew Point 44 °F    
Average Humidity 94    
Maximum Humidity 100    
Minimum Humidity 87    
Precipitation  
Precipitation 0.40 in - - ()
Sea Level Pressure  
Sea Level Pressure 29.55 in    
Wind  
Wind Speed 36 mph (NNE)    
Max Wind Speed 45 mph    
Max Gust Speed 60 mph    
Visibility 3 miles    
Events      
Averages and records for this station are not official NWS values.
T = Trace of Precipitation, MM = Missing Value Source: NWS Daily Summary

Daily Weather History Graph

Daily Weather History Graph

Search for Another Location

Airport or City:

Trip Planner

Search our weather history database for the weather conditions in past years. The results will help you decide how hot, cold, wet, or windy it might be!

Date:

Astronomy

Nov. 08, 2012 Rise Set
Actual Time 6:22 AM EST 4:25 PM EST
Civil Twilight 5:53 AM EST 4:55 PM EST
Nautical Twilight 5:19 AM EST 5:28 PM EST
Astronomical Twilight 4:47 AM EST 6:01 PM EST
Moon 12:08 AM EST (11/8) 1:10 PM EST (11/8)
Length of Visible Light 11h 02m
Length of Day
10h 03m
Waning Crescent, 33% of the Moon is Illuminated
Nov 8
Waning Crescent
Nov 13
New
Nov 20
First Quarter
Nov 28
Full
Dec 6
Last Quarter

Hourly Weather History & Observations

Time (EST) Temp. Windchill Dew Point Humidity Pressure Visibility Wind Dir Wind Speed Gust Speed Precip Events Conditions
12:15 AM 42.8 °F 30.8 °F 41.0 °F 93% 29.65 in 3.0 mi NNE 40.3 mph 51.8 mph N/A   Overcast
12:35 AM 42.8 °F 31.3 °F 39.2 °F 87% 29.64 in 2.5 mi NNE 36.8 mph 47.2 mph N/A   Overcast
12:55 AM 42.8 °F 31.8 °F 41.0 °F 93% 29.62 in 3.0 mi NNE 33.4 mph 49.5 mph 0.01 in   Overcast
1:15 AM 42.8 °F 31.1 °F 41.0 °F 93% 29.61 in 3.0 mi NNE 38.0 mph 49.5 mph 0.01 in   Overcast
1:35 AM 42.8 °F 31.3 °F 42.8 °F 100% 29.61 in 4.0 mi NNE 36.8 mph 50.6 mph 0.01 in   Overcast
1:55 AM 44.6 °F 33.5 °F 42.8 °F 93% 29.60 in 4.0 mi NNE 39.1 mph 54.1 mph 0.01 in   Overcast
2:15 AM 44.6 °F 33.5 °F 42.8 °F 93% 29.59 in 3.0 mi NNE 39.1 mph 50.6 mph N/A   Overcast
2:35 AM 44.6 °F 33.1 °F 42.8 °F 93% 29.58 in 3.0 mi NNE 42.6 mph 51.8 mph 0.01 in   Overcast
3:15 AM 44.6 °F 32.9 °F 42.8 °F 93% 29.56 in 7.0 mi NNE 43.7 mph 55.2 mph N/A   Overcast
3:35 AM 44.6 °F 32.9 °F 42.8 °F 93% 29.55 in 4.0 mi NE 43.7 mph 56.4 mph N/A   Overcast
3:55 AM 44.6 °F 32.8 °F 42.8 °F 93% 29.54 in 2.5 mi NNE 44.9 mph 55.2 mph N/A   Overcast
4:15 AM 46.4 °F 36.3 °F 44.6 °F 93% 29.53 in 4.0 mi NNE 36.8 mph 49.5 mph N/A   Overcast
4:35 AM 46.4 °F 35.7 °F 44.6 °F 93% 29.53 in 3.0 mi NNE 41.4 mph 49.5 mph N/A   Overcast
4:55 AM 46.4 °F 36.4 °F 44.6 °F 93% 29.52 in 5.0 mi NNE 35.7 mph 48.3 mph 0.02 in   Overcast
5:15 AM 46.4 °F 36.0 °F 44.6 °F 93% 29.51 in 5.0 mi NNE 39.1 mph 56.4 mph 0.01 in   Overcast
5:35 AM 46.4 °F 35.8 °F 44.6 °F 93% 29.50 in 2.0 mi NNE 40.3 mph 54.1 mph 0.02 in   Overcast
5:55 AM 46.4 °F 35.8 °F 44.6 °F 93% 29.51 in 3.0 mi NNE 40.3 mph 56.4 mph 0.03 in   Overcast
6:35 AM 46.4 °F 36.1 °F 44.6 °F 93% 29.50 in 3.0 mi NNE 38.0 mph 56.4 mph 0.04 in   Overcast
6:55 AM 46.4 °F 36.0 °F 44.6 °F 93% 29.50 in 1.8 mi NE 39.1 mph 57.5 mph 0.05 in   Overcast
7:15 AM 46.4 °F 35.6 °F 44.6 °F 93% 29.49 in 1.8 mi NNE 42.6 mph 59.8 mph N/A   Overcast
7:35 AM 46.4 °F 36.3 °F 44.6 °F 93% 29.49 in 2.5 mi NNE 36.8 mph 50.6 mph 0.01 in   Overcast
7:55 AM 46.4 °F 35.6 °F 44.6 °F 93% 29.48 in 1.8 mi NNE 42.6 mph 56.4 mph 0.01 in   Overcast
8:15 AM 48.2 °F - 46.4 °F 93% 29.47 in 2.0 mi NNE 34.5 mph 47.2 mph 0.01 in   Overcast
8:55 AM 48.2 °F - 46.4 °F 93% 29.47 in 1.2 mi NNE 32.2 mph 49.5 mph 0.02 in   Overcast
9:15 AM 48.2 °F - 48.2 °F 100% 29.47 in 1.5 mi NNE 35.7 mph 44.9 mph 0.01 in   Overcast
9:35 AM 48.2 °F - 46.4 °F 93% 29.47 in 1.5 mi NNE 35.7 mph 50.6 mph 0.02 in   Overcast
9:55 AM 48.2 °F - 48.2 °F 100% 29.48 in 1.8 mi NNE 36.8 mph 48.3 mph 0.03 in   Overcast
10:35 AM 48.2 °F - 46.4 °F 93% 29.47 in 1.8 mi NNE 29.9 mph 46.0 mph 0.01 in   Overcast
10:55 AM 48.2 °F - 46.4 °F 93% 29.47 in 1.5 mi NNE 32.2 mph 46.0 mph 0.02 in   Overcast
11:15 AM 48.2 °F - 46.4 °F 93% 29.46 in 1.5 mi NNE 32.2 mph 44.9 mph 0.01 in   Overcast
11:35 AM 48.2 °F - 46.4 °F 93% 29.46 in 1.5 mi NNE 29.9 mph 48.3 mph 0.02 in   Overcast
12:15 PM 48.2 °F - 46.4 °F 93% 29.46 in 1.5 mi NNE 29.9 mph 44.9 mph N/A   Overcast
12:35 PM 48.2 °F - 46.4 °F 93% 29.46 in 1.8 mi NNE 32.2 mph 41.4 mph N/A   Overcast
12:55 PM 48.2 °F - 46.4 °F 93% 29.46 in 1.8 mi NNE 35.7 mph 48.3 mph N/A   Overcast
1:15 PM 48.2 °F - 46.4 °F 93% 29.46 in 1.8 mi NNE 31.1 mph 47.2 mph N/A   Overcast
1:35 PM 48.2 °F - 46.4 °F 93% 29.47 in 1.8 mi NNE 29.9 mph 43.7 mph N/A   Overcast
1:55 PM 48.2 °F - 46.4 °F 93% 29.47 in 1.8 mi NNE 26.5 mph 43.7 mph 0.03 in   Overcast
2:35 PM 46.4 °F 37.7 °F 46.4 °F 100% 29.49 in 1.8 mi NNE 26.5 mph 49.5 mph 0.04 in   Overcast
2:55 PM 46.4 °F 36.5 °F 46.4 °F 100% 29.50 in 2.0 mi NNE 34.5 mph 49.5 mph 0.06 in   Overcast
3:15 PM 46.4 °F 37.2 °F 44.6 °F 93% 29.50 in 2.0 mi North 29.9 mph 42.6 mph 0.01 in   Overcast
3:55 PM 46.4 °F 36.5 °F 44.6 °F 93% 29.52 in 1.8 mi North 34.5 mph 47.2 mph 0.06 in   Overcast
5:15 PM 46.4 °F 36.7 °F 44.6 °F 93% 29.56 in 4.0 mi North 33.4 mph 44.9 mph N/A   Overcast
5:35 PM 44.6 °F 34.4 °F 44.6 °F 100% 29.57 in 5.0 mi North 32.2 mph 43.7 mph N/A   Overcast
5:55 PM 44.6 °F 34.2 °F 44.6 °F 100% 29.58 in 5.0 mi North 33.4 mph 40.3 mph N/A   Overcast
6:15 PM 44.6 °F 35.1 °F 44.6 °F 100% 29.59 in 3.0 mi North 27.6 mph 46.0 mph N/A   Overcast
6:35 PM 44.6 °F 34.4 °F 44.6 °F 100% 29.60 in 5.0 mi North 32.2 mph 42.6 mph N/A   Overcast
6:55 PM 44.6 °F 34.6 °F 42.8 °F 93% 29.60 in 5.0 mi North 31.1 mph 44.9 mph 0.01 in   Overcast
7:15 PM 44.6 °F 34.2 °F 42.8 °F 93% 29.61 in 4.0 mi North 33.4 mph 41.4 mph N/A   Overcast
7:35 PM 44.6 °F 35.5 °F 42.8 °F 93% 29.62 in 5.0 mi North 25.3 mph 38.0 mph N/A   Overcast
7:55 PM 44.6 °F 35.5 °F 42.8 °F 93% 29.62 in 5.0 mi North 25.3 mph 43.7 mph N/A   Overcast
8:15 PM 44.6 °F 34.6 °F 42.8 °F 93% 29.63 in 6.0 mi North 31.1 mph 40.3 mph N/A   Overcast
8:35 PM 44.6 °F 35.1 °F 42.8 °F 93% 29.63 in 7.0 mi North 27.6 mph 40.3 mph N/A   Overcast
9:15 PM 44.6 °F 35.5 °F 42.8 °F 93% 29.64 in 5.0 mi North 25.3 mph 36.8 mph N/A   Overcast
9:35 PM - - - N/A% 29.63 in 8.0 mi North 24.2 mph 36.8 mph N/A   Overcast
9:55 PM 44.6 °F 35.5 °F 42.8 °F 93% 29.65 in 7.0 mi North 25.3 mph 40.3 mph N/A   Overcast
10:15 PM 44.6 °F 35.1 °F 42.8 °F 93% 29.66 in 6.0 mi North 27.6 mph 38.0 mph N/A   Overcast
10:35 PM 44.6 °F 34.9 °F 42.8 °F 93% 29.66 in 5.0 mi North 28.8 mph 36.8 mph N/A   Overcast
10:55 PM 44.6 °F 34.4 °F 42.8 °F 93% 29.66 in 3.0 mi North 32.2 mph 38.0 mph N/A   Overcast
11:15 PM 44.6 °F 35.1 °F 42.8 °F 93% 29.67 in 4.0 mi North 27.6 mph 39.1 mph 0.01 in   Overcast
11:35 PM 42.8 °F 32.5 °F 41.0 °F 93% 29.68 in 4.0 mi North 28.8 mph 36.8 mph 0.01 in   Overcast
11:55 PM 44.6 °F 35.1 °F 41.0 °F 87% 29.68 in 4.0 mi North 27.6 mph 38.0 mph 0.01 in   Overcast